カタログに戻る

SL-16 DEB

運用中LEO
NORAD 39850·DEBRIS·🇷🇺 Russia

打ち上げ Dec 25, 1992 から Baikonur Cosmodrome

Loading…

次のパス (今後24時間)

TLE

古いSource: Space-Track

元期: Aug 31, 2026, 23:40 UTC

1 39850U 92093LC  26243.98645660  .00000471  00000-0  29086-3 0  9999
2 39850  71.3393 335.3799 0091968 280.3850  78.6915 14.08181171347003

AllMySatでSL-16 DEBをリアルタイム追跡

Download on the App Store